COSMOS 1275 DEB

Satellite information

Favourite Embed

Satellite Type and Status

DEBRISIN ORBIT

Key statistics

Satellite COSMOS 1275 DEB at a glance.

Uptime

16046

Days in orbit

Revolutions

≈ 14.0

Per day

Orbit

LEO

Low Earth Orbit

Inclination

83.0

Latest

Satellite identification and parameters

Extended collection of information and parameters for COSMOS 1275 DEB.

Object identification

Identified? True

Debris? True

Object name: COSMOS 1275 DEB

International designator: 1981-053EG

Object number (NORAD): 12952

Object ID (CCSDS): 12952

Country: COMMONWEALTH OF INDEPENDENT STATES (CIS)

Current information (Y/N): Y

RCS size: SMALL

Orbital parameters

Period: 102.969 minutes

Inclination: 82.9582 deg

SMA: 7277.204 km

Apoapsis: 905.332 km

Periapsis: 892.806 km

RAAN: 284.5414 deg

Eccentricy: 0.0008606

Argument of periapsis: 227.2375 deg

Mean anomaly: 188.2272 deg

Mean motion: 13.98478999 rev/day

Mean motion (dot): 0.00001218 rev/day2

B* drag term: 0.00084025 1/REarth

Two-line elements (TLE)

Creation date: May 8, 2025, 10:46 p.m.

Reference frame: TEME

Reference center: EARTH

Epoch: May 8, 2025, 11:20 a.m. UTC

TLE line 0: 0 COSMOS 1275 DEB

TLE line 1: 1 12952U 81053EG 25128.47270841 .00001218 00000-0 84025-3 0 9991

TLE line 2: 2 12952 82.9582 284.5414 0008606 227.2375 188.2272 13.98478999206556

Live tracking on map

Real-time ground track for satellite COSMOS 1275 DEB.

In-orbit conjunctions

A list of the most updated potential collisions computed for object COSMOS 1275 DEB.

Target Orbit TCA Probability of collision Miss distance Type
NOAA 16 DEB SSO 2024-09-25 21:22:54 0.0002126489 434.0 (m) DEBRIS

Associated space launch

Navigation satellite providing location information for the Tsiklon-B navigation system

COSMOS 1275 DEB was lifted into orbit during the mission ‘Kosmos-3M | Parus 27’, on board a Kosmos-3M space rocket.

The launch took place on June 4, 1981, 3:41 p.m. from 132/2.

For more information about the launch, click the button.

Launch to space Kosmos-3M | Parus 27
Kosmos-3M | Parus 27

Agency: N/A

Status: Launch Successful

Launch date: June 4, 1981, 3:41 p.m. UTC

Rocket: Kosmos-3M

Launch pad: 132/2

Location: Plesetsk Cosmodrome, Russian Federation

...

Latest news about this satellite

There are no fresh news available about this satellite. Check back as we update our databases every day.


Newsletter sign-up

Weekly statistics, charts and insights to help you stay on top of the space industry.